This demonstration page uses our WeatherBlox Daily Observations layout. Learn more.

Left ArrowRight Arrow

Hourly Observations for March 6, 2022

Temp ( °F °C ) Dew Point ( °F °C ) Humidity (%) Winds ( mph kmh ) Pressure ( in mb ) Visibility ( mi km ) Precip ( " mm )
12:56 am 00:56 Clear 19 -7.2 15 -9.4 84 84 NNW 8 13 30.13 1020 10 16 0.00 0.00
1:56 am 01:56 Clear 18 -7.8 14 -10 84 84 NNW 9 15 30.16 1021 10 16 0.00 0.00
2:56 am 02:56 Clear 17 -8.3 13 -10.6 84 84 WNW 6 9 30.18 1022 10 16 0.00 0.00
3:56 am 03:56 Clear 17 -8.3 13 -10.6 84 84 W 9 15 30.19 1022 10 16 0.00 0.00
4:56 am 04:56 Clear 15 -9.4 11 -11.7 84 84 WNW 9 15 30.22 1023 10 16 0.00 0.00
5:56 am 05:56 Clear 16 -8.9 13 -10.6 88 88 NW 10 17 30.24 1024 10 16 0.00 0.00
6:56 am 06:56 Clear 16 -8.9 12 -11.1 84 84 NNW 12 19 30.23 1024 10 16 0.00 0.00
7:56 am 07:56 Sunny 19 -7.2 14 -10 81 81 NNW 15 24 30.22 1024 10 16 0.00 0.00
8:56 am 08:56 Sunny 21 -6.1 14 -10 74 74 N 17 28 30.24 1024 10 16 0.00 0.00
9:56 am 09:56 Mostly Sunny 23 -5 14 -10 68 68 N 20 31 30.27 1025 10 16 0.00 0.00
10:53 am 10:53 Mostly Cloudy 27 -3 16 -9 64 64 N 18 30 30.31 1026 10 16 0.00 0.00
10:56 am 10:56 Partly Cloudy 25 -3.9 14 -10 63 63 N 17 28 30.27 1025 10 16 0.00 0.00
11:56 am 11:56 Mostly Sunny 29 -1.7 17 -8.3 61 61 N 14 22 30.27 1025 10 16 0.00 0.00
12:34 pm 12:34 Mostly Cloudy 28 -2 16 -9 59 59 N 15 24 30.29 1026 10 16 0.00 0.00
12:43 pm 12:43 Partly Cloudy 30 -1 18 -8 59 59 N 16 26 30.27 1025 10 16 0.00 0.00
12:56 pm 12:56 Partly Cloudy 30 -1.1 16 -8.9 56 56 NNE 15 24 30.22 1024 10 16 0.00 0.00
1:31 pm 13:31 Mostly Cloudy 30 -1 16 -9 55 55 N 18 30 30.24 1024 10 16 0.00 0.00
1:56 pm 13:56 Mostly Cloudy 30 -1.1 17 -8.3 58 58 N 20 31 30.20 1023 10 16 0.00 0.00
2:04 pm 14:04 Partly Cloudy 30 -1 18 -8 59 59 N 18 30 30.22 1023 10 16 0.00 0.00
2:25 pm 14:25 Mostly Cloudy 28 -2 18 -8 64 64 N 21 33 30.22 1023 10 16 0.00 0.00
2:42 pm 14:42 Mostly Cloudy 28 -2 16 -9 59 59 N 17 28 30.22 1023 10 16 0.00 0.00
2:56 pm 14:56 Cloudy 28 -2.2 17 -8.3 63 63 N 24 39 30.18 1022 10 16 0.00 0.00
3:13 pm 15:13 Cloudy 27 -3 16 -9 64 64 undefined N/A 30.22 1023 10 16 0.00 0.00
3:26 pm 15:26 Cloudy 27 -3 16 -9 64 64 N 20 31 30.22 1023 10 16 0.00 0.00
3:54 pm 15:54 Cloudy 27 -3 16 -9 64 64 N 23 37 30.21 1023 10 16 0.00 0.00
3:56 pm 15:56 Cloudy 27 -2.8 16 -8.9 63 63 N 22 35 30.18 1022 10 16 0.00 0.00
4:44 pm 16:44 Cloudy 27 -3 16 -9 64 64 N 22 35 30.24 1024 10 16 0.00 0.00
4:56 pm 16:56 Cloudy 26 -3.3 15 -9.4 63 63 N 17 28 30.22 1023 10 16 0.00 0.00
5:44 pm 17:44 Cloudy with Light Snow 25 -4 16 -9 69 69 N 18 30 30.25 1024 9 14 0.00 0.00
5:56 pm 17:56 Windy with Snow Likely 25 -3.9 15 -9.4 66 66 N 20 31 30.21 1023 9 14 0.00 0.00
6:56 pm 18:56 Cloudy 24 -4.4 15 -9.4 68 68 N 21 33 30.22 1023 10 16 0.00 0.00
7:56 pm 19:56 Cloudy with Light Snow 22 -5.6 17 -8.3 82 82 NNW 14 22 30.25 1024 6 10 0.00 0.00
8:04 pm 20:04 Cloudy with Light Snow 21 -6 18 -8 86 86 N 14 22 30.32 1027 6 10 0.00 0.00
8:17 pm 20:17 Cloudy with Light Snow 21 -6 18 -8 86 86 N 15 24 30.32 1027 4 6 0.00 0.00
8:51 pm 20:51 Cloudy with Light Snow 23 -5 18 -8 80 80 NNW 14 22 30.33 1027 9 14 0.00 0.00
8:56 pm 20:56 Cloudy with Light Snow 23 -5 18 -7.8 81 81 N 17 28 30.28 1025 9 14 0.00 0.00
9:56 pm 21:56 Cloudy with Light Snow 22 -5.6 16 -8.9 78 78 N 16 26 30.29 1026 7 11 0.00 0.00
10:25 pm 22:25 Cloudy with Light Snow 21 -6 18 -8 86 86 N 14 22 30.37 1028 3 4 0.00 0.00
10:41 pm 22:41 Cloudy with Light Snow 21 -6 18 -8 86 86 NNW 13 20 30.37 1028 2 3 0.00 0.00
10:56 pm 22:56 Cloudy with Light Snow 21 -6.1 17 -8.3 85 85 NNW 12 19 30.31 1026 2 3 0.00 0.00
11:10 pm 23:10 Cloudy with Light Snow 21 -6 18 -8 86 86 NNW 13 20 30.37 1028 2 3 0.00 0.00
11:34 pm 23:34 Cloudy with Light Snow 21 -6 18 -8 86 86 NNW 7 11 30.38 1029 2 3 0.00 0.00
11:46 pm 23:46 Cloudy with Light Snow 21 -6 18 -8 86 86 NW 9 15 30.38 1029 2 3 0.00 0.00
11:54 pm 23:54 Cloudy with Light Snow 21 -6 18 -8 86 86 NW 9 15 30.38 1029 2 3 0.00 0.00
11:56 pm 23:56 Cloudy with Light Snow 21 -6.1 18 -7.8 88 88 NNW 10 17 30.31 1026 2 3 0.00 0.00

Powered by AerisWeather